Miscellaneous Local Product
Issued by NWS Hastings, NE

Home | Current Version | Previous Version | Text Only | Print | Product List | Glossary Off
Versions: 1 2 3 4 5 6 7 8 9 10 11 12 13 14 15 16 17 18 19 20 21 22 23 24 25 26 27 28 29 30 31 32 33 34 35 36 37 38 39 40 41 42 43 44 45 46 47 48 49 50

000
AXUS43 KGID 240702
MISGRI

GID CWA HOURLY WEATHER ROUNDUP
NATIONAL WEATHER SERVICE HASTINGS NE
200 AM CDT TUE APR 24 2018

NOTE: "FAIR" INDICATES FEW OR NO CLOUDS BELOW 12,000 FEET WITH NO
SIGNIFICANT WEATHER AND/OR OBSTRUCTIONS TO VISIBILITY.

...SOUTH CENTRAL NEBRASKA...

CITY           SKY/WX    TMP DP  RH WIND       PRES   REMARKS
GRAND ISLAND   MOCLDY    51  42  71 CALM      30.15R
KEARNEY        PTCLDY    47  40  76 VRB7      30.15R
HASTINGS       CLEAR     47  39  74 W3        30.15R
ORD            CLOUDY    48  42  80 CALM      30.12S
YORK             N/A     52  30  43 CALM      30.13R
AURORA         CLOUDY    52  38  58 CALM      30.13S
LEXINGTON      CLOUDY    46  40  81 E3        30.14F
HOLDREGE       CLOUDY    44  39  82 CALM      30.14R
HEBRON         CLEAR     44  36  72 CALM      30.12S

...NEBRASKA PANHANDLE...

CITY           SKY/WX    TMP DP  RH WIND       PRES   REMARKS
CHADRON        CLOUDY    39  34  82 NW16      30.30R WCI  30
ALLIANCE       CLOUDY    38  34  85 NW21G26   30.26R WCI  28
SCOTTSBLUFF    CLOUDY    38  34  85 NW24G36   30.31S WCI  27
SIDNEY         CLOUDY    37  34  89 NW24G31   30.26R WCI  26

...WESTERN AND NORTH CENTRAL NEBRASKA...

CITY           SKY/WX    TMP DP  RH WIND       PRES   REMARKS
VALENTINE      LGT RAIN  48  44  86 W14       30.18R
AINSWORTH      LGT RAIN  53  49  87 NW14G21   30.16S
ONEILL         CLOUDY    58  38  46 SE8       30.13S
BROKEN BOW     CLOUDY    47  42  83 CALM      30.13S
IMPERIAL       CLOUDY    49  48  97 NW15G22   30.18R
NORTH PLATTE   CLOUDY    52  43  71 S7        30.15S
MCCOOK         CLOUDY    50  41  71 W3        30.15R

...EASTERN NEBRASKA...

CITY           SKY/WX    TMP DP  RH WIND       PRES   REMARKS
NORFOLK        CLOUDY    52  40  63 SE7       30.14R
SO SIOUX CITY  MOCLDY    47  39  74 CALM      30.15R
TEKAMAH        CLEAR     42  36  79 NW8       30.14R
COLUMBUS       CLOUDY    52  35  52 NE5       30.15R
ALBION         CLOUDY    56  38  52 NE6       30.15R HAZE
OMAHA EPPLEY   PTCLDY    47  34  60 NW6       30.13R
MILLARD        CLEAR     55  36  48 CALM      30.13R
LINCOLN        CLOUDY    42  33  70 N7        30.14R
NEBRASKA CITY  CLEAR     51  32  48 N8        30.11R
BEATRICE       CLEAR     43  34  70 CALM      30.12R
FALLS CITY     CLEAR     54  29  38 CALM      30.09R

...NORTHERN KANSAS...

CITY           SKY/WX    TMP DP  RH WIND       PRES   REMARKS
GOODLAND       CLOUDY    49  43  80 E7        30.15R
HILL CITY      CLOUDY    45  41  86 N7        30.14R
NORTON         SUNNY     48  39  71 CALM      30.13S
PHILLIPSBURG   CLEAR     45  37  76 W8        30.14R
BELOIT         CLEAR     39  36  87 CALM      30.11R
HAYS           CLEAR     48  41  76 N3        30.12R
RUSSELL        CLEAR     50  44  80 E5        30.09R
CONCORDIA      CLEAR     48  36  63 W7        30.11R
SALINA         CLEAR     49  43  80 CALM      30.09R
TOPEKA         CLEAR     50  39  66 CALM      30.07R



USA.gov is the U.S. government's official web portal to all federal, state and local government web resources and services.